This is the latest recevied weather packets stored in our database for station/object AB4KN. If no packets are shown the sender has not sent any weather packets the latest 10 day(s).
| Time | Temp. | Humidity | Pressure | Rain* | Wind** | Luminosity | Snow |
|---|---|---|---|---|---|---|---|
| 1778070277 | 18.89° C | 85% | 1020.2 hPa | 0 mm | - | 14 W/m² | - |
| 1778069976 | 18.89° C | 85% | 1020.4 hPa | 0 mm | - | 14 W/m² | - |
| 1778069672 | 18.33° C | 85% | 1020.1 hPa | 0 mm | - | 13 W/m² | - |
| 1778069369 | 18.33° C | 85% | 1020.2 hPa | 0 mm | - | 13 W/m² | - |
| 1778069067 | 18.33° C | 85% | 1020 hPa | 0 mm | - | 19 W/m² | - |
| 1778068764 | 18.33° C | 85% | 1019.8 hPa | 0 mm | - | 20 W/m² | - |
| 1778068462 | 18.33° C | 85% | 1020.1 hPa | 0 mm | - | 25 W/m² | - |
| 1778068160 | 18.33° C | 85% | 1019.8 hPa | 0 mm | - | 22 W/m² | - |
| 1778067857 | 17.78° C | 85% | 1019.9 hPa | 0 mm | - | 12 W/m² | - |
| 1778067556 | 17.78° C | 85% | 1019.7 hPa | 0 mm | - | 15 W/m² | - |
| 1778067253 | 17.78° C | 85% | 1019.7 hPa | 0 mm | - | 9 W/m² | - |
| 1778066949 | 17.78° C | 84% | 1019.7 hPa | 0 mm | - | 9 W/m² | - |
| 1778066647 | 17.78° C | 84% | 1019.8 hPa | 0 mm | - | 7 W/m² | - |
| 1778066344 | 17.78° C | 84% | 1019.9 hPa | 0 mm | - | 4 W/m² | - |
| 1778066042 | 17.78° C | 84% | 1019.8 hPa | 0 mm | - | 2 W/m² | - |
| 1778065739 | 17.78° C | 84% | 1019.8 hPa | 0 mm | - | 2 W/m² | - |
| 1778065437 | 17.78° C | 84% | 1019.6 hPa | 0 mm | - | 1 W/m² | - |
| 1778065133 | 17.78° C | 84% | 1019.8 hPa | 0 mm | - | 0 W/m² | - |
| 1778064830 | 17.78° C | 84% | 1019.6 hPa | 0 mm | - | 0 W/m² | - |
| 1778064527 | 17.78° C | 84% | 1019.3 hPa | 0 mm | - | 0 W/m² | - |
| 1778064225 | 17.78° C | 84% | 1019.1 hPa | 0 mm | - | 0 W/m² | - |
| 1778063922 | 17.78° C | 84% | 1019.5 hPa | 0 mm | - | 0 W/m² | - |
| 1778063619 | 17.78° C | 83% | 1019 hPa | 0 mm | - | 0 W/m² | - |
| 1778063317 | 17.78° C | 83% | 1019.1 hPa | 0 mm | - | 0 W/m² | - |
| 1778063015 | 17.22° C | 83% | 1019.1 hPa | 0 mm | - | 0 W/m² | - |
* Rain latest hour (hover to see other rain measurements)
** Current wind speed in m/s (hover to see current wind gust speed)